Regional Weather Roundup
Issued by NWS Green Bay, WI

Home | Current Version | Previous Version | Text Only | Print | Product List | Glossary On
Versions: 1 2 3 4 5 6 7 8 9 10 11 12 13 14 15 16 17 18 19 20 21 22 23 24 25 26 27 28 29 30 31 32 33 34 35 36 37 38 39 40 41 42 43 44 45 46 47 48 49 50
000
ASUS43 KGRB 251600
RWRGRB

NORTH-CENTRAL AND NORTHEAST WISCONSIN REGIONAL WEATHER ROUNDUP
NATIONAL WEATHER SERVICE GREEN BAY WI
1100 AM CDT FRI MAY 25 2018

WIZ005-009-010>012-018-019-251700-
NORTH CENTRAL WISCONSIN

CITY           SKY/WX    TMP DP  RH WIND       PRES   REMARKS
IRONWOOD       FAIR      73  61  65 SW13G21   29.77R
MANITOWISH WTR NOT AVBL
ARBOR VITAE    NOT AVBL
EAGLE RIVER    NOT AVBL
LAND O LAKES   NOT AVBL
RHINELANDER    FAIR      72  62  71 SW10      29.84S
PHILLIPS       FAIR      70  64  81 SW7       29.81F
ANTIGO         FAIR      78  59  52 SW14G23   29.83F
TOMAHAWK       NOT AVBL
MERRILL        FAIR      72  59  64 W7        29.83R
$$

WIZ013-073-251700-
NORTHEAST WISCONSIN

CITY           SKY/WX    TMP DP  RH WIND       PRES   REMARKS
IRON MOUNTAIN  PTSUNNY   76  64  66 W5        29.80S
MARINETTE      FAIR      83  66  56 SW8       29.81F
$$

WIZ017-030-035>037-045-251700-
CENTRAL WISCONSIN

CITY           SKY/WX    TMP DP  RH WIND       PRES   REMARKS
MEDFORD        NOT AVBL
WAUSAU         PTSUNNY   77  53  43 SW12      29.77F
MOSINEE        PTSUNNY   79  55  44 SW10G18   29.82F
MARSHFIELD     LGT RAIN  76  56  49 S24G31    29.77F
WISC RAPIDS    FAIR      80  56  43 W9        29.87F
STEVENS POINT  NOT AVBL
WAUPACA        NOT AVBL
SHAWANO        NOT AVBL
CLINTONVILLE   NOT AVBL
WAUTOMA        FAIR      82  63  52 NW10      29.88F
$$

WIZ038-039-048-051-251700-
FOX VALLEY

CITY           SKY/WX    TMP DP  RH WIND       PRES   REMARKS
NWS GREEN BAY  FAIR      85  64  49 W13G23    29.84F
APPLETON       MOSUNNY   81  57  44 W16       29.86S
OSHKOSH        FAIR      82  65  56 W12       29.87S
FOND DU LAC    FAIR      83  65  54 W12G22    29.88F
$$

WIZ022-050-052-251700-
EAST CENTRAL WISCONSIN

CITY           SKY/WX    TMP DP  RH WIND       PRES   REMARKS
EPHRAIM        NOT AVBL
WASHINGTON ISL NOT AVBL
STURGEON BAY   FAIR      83  66  56 SW15      29.83F
MANITOWOC      FAIR      83  65  54 W15       29.86S
SHEBOYGAN      FAIR      85  65  51 W12       29.87F
$$

LMZ563-521-522-541>543-251700-
LAKESHORE

STATION/POSITION TIME  TEMP    WIND        PRES    VSBY  WAVE
                       AIR SEA DIR/SP/G                  HT/PER
                 (UTC) (F)     (DEG/KT/KT) (MB)    (MI)  (FT/S)
SHEBOYGAN LKSHOR 1500   73     210/ 11/ 15 1011.1F
KEWAUNEE LKSHORE 1524   81     260/ 12/ 16 1010.1
NORTHPORT PIER   1540          130/  4/  5 1009.8F
N MID LAKE BUOY  1540   42 38  170/  8/ 10 1010.5F
SISTER BAY LKSHO 1527   76     260/ 10/ 10   N/A
MENOMINEE LKSHOR 1524   80     240/ 11/ 19 1009.4
$$




USA.gov is the U.S. government's official web portal to all federal, state and local government web resources and services.